{"data":{"norad_id":59181,"intl_designator":"2024-045D","name":"STARLINK-31486","alt_names":[],"object_type":"PAYLOAD","status":"ACTIVE","operator":null,"country":"US","launch_date":"2024-03-10","launch_site_code":"AFETR","launch_vehicle":null,"mission":null,"orbit_class":"UNKNOWN","rcs_meters":null,"size_class":null,"mass_kg":null,"dimensions":null,"purposes":["comms"],"wikipedia_slug":null,"has_3d_model":false,"image_url":null,"decayed_at":null,"tle_current":{"epoch":"2026-09-20T04:18:42.318144Z","epoch_age_seconds":186577,"freshness":"STALE","line1":"1 59181U 24045D   26263.17965646 -.00000638  00000+0 -13654-4 0  9993","line2":"2 59181  43.0040  70.9215 0001081 269.8395  90.2333 15.27572249142947","mean_motion":15.27572249,"eccentricity":0.0001081,"inclination_deg":43.004,"raan_deg":70.9215,"arg_perigee_deg":269.8395,"mean_anomaly_deg":90.2333,"bstar":-1.3654e-5,"rev_number":14294,"period_min":94.267227029207,"perigee_km":482.33060869428,"apogee_km":483.81400214611,"semimajor_km":6861.2093054202,"source":"CELESTRAK","updated_at":"2026-09-21T09:00:34.062249Z"}}}